KAC176 OKKK-UAKK

Flight info

Callsign KAC176
Flight time 3h 57m
Altitude 37000
Route ALVAX B417 IMKEN W6 ISN/N0479F380 R659 TRN/N0480F370 Z2 RAPSU/N0473F390 Z2 DNZ A414 BRD L720 RIKOP B114 ABDAN R433 AGNAN/K0874F390 N990 ALZIS L51 DOZIN DOZIN2H
Aircraft A346/H-SDE2E3FGHIJ3J4J5M1RWXY/LB1D1

Departure

Time 2026-05-05 16:40
Airport Kuwait International Airport (OKKK)

Arrival

Time 2026-05-05 20:38
Airport Sary-Arka Airport (UAKK)
Time Latitude Longitude Altitude Speed Heading
2026-05-05 16:21 29.23859 47.97082 175 ft 0 kts 21°
2026-05-05 16:27 29.23852 47.97079 175 ft 4 kts 22°
2026-05-05 16:27 29.23829 47.97068 175 ft 1 kts 23°
2026-05-05 16:27 29.23808 47.97057 175 ft 4 kts 25°
2026-05-05 16:28 29.23788 47.97047 175 ft 4 kts 13°
2026-05-05 16:28 29.23772 47.97047 175 ft 4 kts 333°
2026-05-05 16:28 29.23763 47.97059 175 ft 4 kts 296°
2026-05-05 16:28 29.23750 47.97081 175 ft 4 kts 321°
2026-05-05 16:29 29.23744 47.97086 175 ft 0 kts 335°
2026-05-05 16:31 29.23755 47.97080 175 ft 3 kts 335°
2026-05-05 16:31 29.23782 47.97066 175 ft 4 kts 328°
2026-05-05 16:31 29.23801 47.97029 175 ft 7 kts 288°
2026-05-05 16:31 29.23791 47.96974 175 ft 8 kts 245°
2026-05-05 16:32 29.23762 47.96900 175 ft 12 kts 245°
2026-05-05 16:32 29.23724 47.96805 174 ft 14 kts 245°
2026-05-05 16:32 29.23688 47.96719 174 ft 1 kts 244°
2026-05-05 16:32 29.23679 47.96697 174 ft 5 kts 244°
2026-05-05 16:33 29.23656 47.96649 173 ft 9 kts 226°
2026-05-05 16:33 29.23591 47.96647 171 ft 12 kts 155°
2026-05-05 16:33 29.23504 47.96693 171 ft 15 kts 155°
2026-05-05 16:33 29.23405 47.96746 172 ft 16 kts 155°
2026-05-05 16:34 29.23295 47.96805 172 ft 18 kts 155°
2026-05-05 16:34 29.23217 47.96845 173 ft 13 kts 156°
2026-05-05 16:34 29.23134 47.96888 174 ft 13 kts 155°
2026-05-05 16:34 29.23048 47.96934 176 ft 14 kts 155°
2026-05-05 16:35 29.22954 47.96985 176 ft 16 kts 155°
2026-05-05 16:35 29.22844 47.97041 176 ft 19 kts 156°
2026-05-05 16:35 29.22719 47.97108 175 ft 21 kts 154°
2026-05-05 16:35 29.22579 47.97184 175 ft 23 kts 155°
2026-05-05 16:36 29.22455 47.97249 175 ft 20 kts 155°
2026-05-05 16:36 29.22322 47.97320 175 ft 22 kts 155°
2026-05-05 16:36 29.22176 47.97398 175 ft 24 kts 154°
2026-05-05 16:36 29.22018 47.97481 174 ft 26 kts 155°
2026-05-05 16:37 29.21851 47.97570 174 ft 27 kts 155°
2026-05-05 16:37 29.21677 47.97663 175 ft 28 kts 155°
2026-05-05 16:37 29.21508 47.97753 177 ft 27 kts 155°
2026-05-05 16:37 29.21351 47.97837 178 ft 19 kts 155°
2026-05-05 16:38 29.21262 47.97837 178 ft 12 kts 237°
2026-05-05 16:38 29.21247 47.97740 178 ft 13 kts 294°
2026-05-05 16:38 29.21297 47.97654 179 ft 12 kts 301°
2026-05-05 16:38 29.21342 47.97594 178 ft 7 kts 335°
2026-05-05 16:39 29.21352 47.97589 178 ft 0 kts 335°
2026-05-05 16:39 29.21353 47.97588 178 ft 1 kts 335°
2026-05-05 16:39 29.21514 47.97503 176 ft 58 kts 335°
2026-05-05 16:39 29.22072 47.97206 175 ft 117 kts 335°
2026-05-05 16:40 29.22971 47.96726 172 ft 166 kts 335°
2026-05-05 16:40 29.24066 47.96136 575 ft 175 kts 335°
2026-05-05 16:40 29.25189 47.95542 1074 ft 181 kts 335°
2026-05-05 16:40 29.26368 47.94931 1413 ft 194 kts 334°
2026-05-05 16:41 29.27626 47.94269 1759 ft 204 kts 334°
2026-05-05 16:41 29.28939 47.93570 2041 ft 212 kts 333°
2026-05-05 16:41 29.30315 47.92837 2260 ft 223 kts 333°
2026-05-05 16:41 29.31759 47.92071 2467 ft 234 kts 333°
2026-05-05 16:42 29.33276 47.91272 2666 ft 246 kts 336°
2026-05-05 16:42 29.34994 47.90897 2850 ft 260 kts
2026-05-05 16:42 29.36723 47.91561 3048 ft 268 kts 38°
2026-05-05 16:42 29.37966 47.93155 3263 ft 273 kts 64°
2026-05-05 16:43 29.38854 47.95130 3542 ft 285 kts 67°
2026-05-05 16:43 29.39744 47.97193 4118 ft 289 kts 65°
2026-05-05 16:43 29.40664 47.99253 4793 ft 291 kts 64°
2026-05-05 16:43 29.41616 48.01319 5471 ft 294 kts 63°
2026-05-05 16:44 29.42594 48.03409 6117 ft 299 kts 62°
2026-05-05 16:44 29.43516 48.05538 6705 ft 304 kts 73°
2026-05-05 16:44 29.43727 48.07931 7318 ft 302 kts 102°
2026-05-05 16:44 29.43158 48.10235 8051 ft 299 kts 113°
2026-05-05 16:45 29.42456 48.12484 8754 ft 301 kts 114°
2026-05-05 16:45 29.41746 48.14766 9443 ft 305 kts 113°
2026-05-05 16:45 29.41045 48.17088 10111 ft 309 kts 113°
2026-05-05 16:45 29.40346 48.19457 10601 ft 320 kts 113°
2026-05-05 16:46 29.39617 48.21943 10909 ft 337 kts 113°
2026-05-05 16:46 29.38849 48.24567 11196 ft 355 kts 112°
2026-05-05 16:46 29.38045 48.27320 11490 ft 372 kts 112°
2026-05-05 16:46 29.37202 48.30207 11781 ft 389 kts 112°
2026-05-05 16:47 29.36337 48.33174 12057 ft 405 kts 112°
2026-05-05 16:47 29.35430 48.36279 12496 ft 416 kts 112°
2026-05-05 16:47 29.34742 48.39544 13119 ft 425 kts 100°
2026-05-05 16:47 29.34678 48.42964 13806 ft 433 kts 87°
2026-05-05 16:48 29.35202 48.46390 14432 ft 438 kts 78°
2026-05-05 16:48 29.35919 48.49813 15032 ft 443 kts 77°
2026-05-05 16:48 29.36671 48.53270 15636 ft 448 kts 77°
2026-05-05 16:48 29.37417 48.56770 16275 ft 452 kts 77°
2026-05-05 16:49 29.38148 48.60296 16924 ft 456 kts 78°
2026-05-05 16:49 29.38871 48.63857 17561 ft 460 kts 78°
2026-05-05 16:49 29.39591 48.67445 18177 ft 463 kts 78°
2026-05-05 16:49 29.40313 48.71059 18797 ft 465 kts 78°
2026-05-05 16:50 29.41036 48.74684 19382 ft 468 kts 78°
2026-05-05 16:50 29.41760 48.78307 19924 ft 473 kts 78°
2026-05-05 16:50 29.42503 48.82023 20479 ft 477 kts 78°
2026-05-05 16:50 29.43248 48.85754 21045 ft 481 kts 78°
2026-05-05 16:51 29.43999 48.89528 21612 ft 485 kts 78°
2026-05-05 16:51 29.44754 48.93327 22171 ft 490 kts 78°
2026-05-05 16:51 29.45746 48.97086 22670 ft 496 kts 65°
2026-05-05 16:51 29.47672 49.00348 23177 ft 496 kts 44°
2026-05-05 16:52 29.50399 49.02735 23680 ft 491 kts 24°
2026-05-05 16:52 29.53583 49.04019 24134 ft 483 kts
2026-05-05 16:52 29.56908 49.04406 24615 ft 480 kts 358°
2026-05-05 16:52 29.60213 49.04644 25041 ft 485 kts 358°
2026-05-05 16:53 29.63598 49.04917 25461 ft 490 kts 359°
2026-05-05 16:53 29.67011 49.05245 25926 ft 494 kts 360°
2026-05-05 16:53 29.70451 49.05607 26370 ft 498 kts 360°
2026-05-05 16:53 29.73922 49.05986 26820 ft 502 kts 360°
2026-05-05 16:54 29.77401 49.06369 27261 ft 505 kts 360°
2026-05-05 16:54 29.80919 49.06755 27702 ft 508 kts 360°
2026-05-05 16:54 29.84453 49.07143 28138 ft 512 kts 360°
2026-05-05 16:54 29.88005 49.07531 28662 ft 513 kts 360°
2026-05-05 16:55 29.91550 49.07919 29363 ft 510 kts 360°
2026-05-05 16:55 29.95075 49.08304 30042 ft 508 kts 359°
2026-05-05 16:55 29.98586 49.08688 30591 ft 506 kts 359°
2026-05-05 16:55 30.02090 49.09070 31094 ft 506 kts 359°
2026-05-05 16:56 30.05596 49.09452 31577 ft 506 kts 358°
2026-05-05 16:56 30.09101 49.09833 32056 ft 506 kts 358°
2026-05-05 16:56 30.12560 49.10210 32548 ft 506 kts 358°
2026-05-05 16:56 30.16067 49.10593 33018 ft 506 kts 358°
2026-05-05 16:57 30.19573 49.10977 33484 ft 506 kts 357°
2026-05-05 16:57 30.23079 49.11362 33935 ft 506 kts 357°
2026-05-05 16:57 30.26583 49.11746 34326 ft 506 kts 357°
2026-05-05 16:57 30.30089 49.12130 34704 ft 506 kts 356°
2026-05-05 16:58 30.33606 49.12514 35085 ft 507 kts 356°
2026-05-05 16:58 30.37122 49.12900 35394 ft 508 kts 356°
2026-05-05 16:58 30.40644 49.13286 35658 ft 511 kts 356°
2026-05-05 16:58 30.44191 49.13677 35913 ft 513 kts 356°
2026-05-05 16:59 30.47753 49.14069 36171 ft 515 kts 356°
2026-05-05 16:59 30.51330 49.14522 36423 ft 520 kts 359°
2026-05-05 16:59 30.54923 49.15195 36680 ft 526 kts
2026-05-05 16:59 30.58526 49.16118 36760 ft 534 kts
2026-05-05 17:00 30.65689 49.18647 36764 ft 540 kts 11°
2026-05-05 17:00 30.72828 49.21421 36762 ft 540 kts 11°
2026-05-05 17:01 30.79960 49.24176 36792 ft 540 kts 11°
2026-05-05 17:01 30.87104 49.26914 36760 ft 541 kts 11°
2026-05-05 17:02 30.94213 49.29636 36756 ft 541 kts 11°
2026-05-05 17:02 31.01355 49.32374 36756 ft 540 kts 11°
2026-05-05 17:03 31.08495 49.35115 36767 ft 540 kts 11°
2026-05-05 17:03 31.15643 49.37864 36759 ft 540 kts 11°
2026-05-05 17:04 31.22783 49.40614 36761 ft 540 kts 11°
2026-05-05 17:04 31.29922 49.43369 36788 ft 540 kts 10°
2026-05-05 17:05 31.37043 49.46126 36779 ft 539 kts 10°
2026-05-05 17:05 31.44119 49.48862 36776 ft 539 kts 10°
2026-05-05 17:06 31.51242 49.51622 36779 ft 539 kts 10°
2026-05-05 17:06 31.58373 49.54395 36796 ft 539 kts 10°
2026-05-05 17:07 31.64328 49.56754 36800 ft 543 kts 13°
2026-05-05 17:07 31.68880 49.59342 36802 ft 555 kts 25°
2026-05-05 17:07 31.71027 49.61004 36799 ft 560 kts 31°
2026-05-05 17:08 31.76692 49.67411 36827 ft 571 kts 49°
2026-05-05 17:08 31.80854 49.75401 36852 ft 574 kts 62°
2026-05-05 17:09 31.84521 49.83767 36882 ft 574 kts 61°
2026-05-05 17:09 31.88329 49.92033 36916 ft 574 kts 60°
2026-05-05 17:10 31.92169 50.00264 36934 ft 574 kts 59°
2026-05-05 17:10 31.95986 50.08472 36990 ft 573 kts 60°
2026-05-05 17:11 31.99804 50.16728 37002 ft 573 kts 60°
2026-05-05 17:11 32.03602 50.24982 36999 ft 568 kts 60°
2026-05-05 17:12 32.07350 50.33137 37020 ft 564 kts 60°
2026-05-05 17:12 32.11092 50.41281 37025 ft 563 kts 60°
2026-05-05 17:13 32.14800 50.49387 37025 ft 558 kts 60°
2026-05-05 17:13 32.18484 50.57455 37025 ft 558 kts 60°
2026-05-05 17:14 32.22168 50.65533 37159 ft 557 kts 60°
2026-05-05 17:14 32.25839 50.73618 37199 ft 557 kts 60°
2026-05-05 17:15 32.29480 50.81638 37202 ft 557 kts 60°
2026-05-05 17:15 32.33142 50.89707 37219 ft 557 kts 60°
2026-05-05 17:16 32.34973 50.93750 37012 ft 557 kts 60°
2026-05-05 17:16 32.36801 50.97796 37006 ft 557 kts 60°
2026-05-05 17:16 32.40444 51.05878 37003 ft 557 kts 60°
2026-05-05 17:17 32.44087 51.13977 36993 ft 557 kts 60°
2026-05-05 17:17 32.47723 51.22077 36984 ft 556 kts 60°
2026-05-05 17:18 32.51365 51.30213 36986 ft 557 kts 60°
2026-05-05 17:18 32.54997 51.38349 36986 ft 558 kts 60°
2026-05-05 17:19 32.58619 51.46465 36975 ft 559 kts 60°
2026-05-05 17:19 32.62251 51.54628 36969 ft 558 kts 60°
2026-05-05 17:20 32.65868 51.62792 37055 ft 559 kts 60°
2026-05-05 17:20 32.69496 51.70991 37096 ft 559 kts 60°
2026-05-05 17:21 32.73720 51.78705 37123 ft 553 kts 47°
2026-05-05 17:22 32.82203 51.87644 37126 ft 539 kts 25°
2026-05-05 17:22 32.88768 51.91917 37102 ft 536 kts 20°
2026-05-05 17:23 32.95367 51.95974 37061 ft 537 kts 20°
2026-05-05 17:23 33.01820 52.00020 37024 ft 538 kts 21°
2026-05-05 17:24 33.08344 52.04163 36993 ft 538 kts 21°
2026-05-05 17:24 33.14913 52.08352 36994 ft 532 kts 21°
2026-05-05 17:25 33.21432 52.12521 36972 ft 531 kts 21°
2026-05-05 17:25 33.27943 52.16689 36980 ft 530 kts 21°
2026-05-05 17:26 33.34369 52.20809 36946 ft 531 kts 21°
2026-05-05 17:26 33.40898 52.24998 36961 ft 533 kts 22°
2026-05-05 17:27 33.47446 52.29212 36897 ft 534 kts 22°
2026-05-05 17:27 33.54024 52.33391 36892 ft 532 kts 18°
2026-05-05 17:28 33.60916 52.35824 36903 ft 512 kts 359°
2026-05-05 17:28 33.64441 52.36078 36910 ft 501 kts 350°
2026-05-05 17:28 33.67865 52.35721 36906 ft 489 kts 341°
2026-05-05 17:28 33.71131 52.34815 36901 ft 478 kts 333°
2026-05-05 17:29 33.74219 52.33423 36907 ft 470 kts 328°
2026-05-05 17:29 33.80195 52.30243 36901 ft 470 kts 327°
2026-05-05 17:30 33.86187 52.27039 36928 ft 471 kts 327°
2026-05-05 17:30 33.92154 52.23883 36907 ft 471 kts 327°
2026-05-05 17:31 33.98151 52.20718 36907 ft 471 kts 327°
2026-05-05 17:31 34.04151 52.17551 36898 ft 472 kts 327°
2026-05-05 17:32 34.10170 52.14377 36896 ft 472 kts 327°
2026-05-05 17:32 34.16188 52.11197 36887 ft 473 kts 327°
2026-05-05 17:33 34.22207 52.08009 36885 ft 473 kts 328°
2026-05-05 17:33 34.28216 52.04827 36880 ft 473 kts 327°
2026-05-05 17:34 34.34269 52.01619 36879 ft 474 kts 327°
2026-05-05 17:34 34.40348 51.98382 36884 ft 474 kts 327°
2026-05-05 17:35 34.46397 51.95169 36877 ft 475 kts 327°
2026-05-05 17:35 34.52406 51.91971 36875 ft 475 kts 327°
2026-05-05 17:36 34.58421 51.88765 36873 ft 475 kts 327°
2026-05-05 17:36 34.64473 51.85529 36868 ft 474 kts 327°
2026-05-05 17:37 34.70506 51.82286 36870 ft 474 kts 327°
2026-05-05 17:37 34.76538 51.79049 36891 ft 474 kts 327°
2026-05-05 17:38 34.82588 51.75793 36885 ft 475 kts 327°
2026-05-05 17:38 34.88648 51.72522 36884 ft 475 kts 327°
2026-05-05 17:39 34.94699 51.69256 36887 ft 475 kts 327°
2026-05-05 17:39 35.00704 51.66010 36888 ft 475 kts 327°
2026-05-05 17:40 35.06758 51.62730 36904 ft 477 kts 327°
2026-05-05 17:40 35.12817 51.59447 36904 ft 477 kts 327°
2026-05-05 17:41 35.18884 51.56159 36929 ft 477 kts 327°
2026-05-05 17:41 35.24973 51.52848 36917 ft 477 kts 327°
2026-05-05 17:42 35.31047 51.49541 36921 ft 477 kts 327°
2026-05-05 17:42 35.37119 51.46230 36939 ft 478 kts 327°
2026-05-05 17:43 35.43196 51.42911 36934 ft 478 kts 327°
2026-05-05 17:43 35.49279 51.39585 36974 ft 478 kts 327°
2026-05-05 17:44 35.55353 51.36258 36992 ft 478 kts 327°
2026-05-05 17:44 35.61597 51.33279 36972 ft 495 kts 341°
2026-05-05 17:44 35.65090 51.32936 36981 ft 514 kts 355°
2026-05-05 17:45 35.68662 51.33684 36981 ft 531 kts 11°
2026-05-05 17:45 35.72060 51.35570 36994 ft 544 kts 28°
2026-05-05 17:45 35.75027 51.38572 36991 ft 554 kts 46°
2026-05-05 17:45 35.77309 51.42404 37012 ft 555 kts 57°
2026-05-05 17:46 35.79309 51.46474 37011 ft 554 kts 59°
2026-05-05 17:46 35.83239 51.54654 37025 ft 554 kts 58°
2026-05-05 17:47 35.87277 51.62731 37059 ft 551 kts 58°
2026-05-05 17:47 35.91344 51.70755 37072 ft 551 kts 57°
2026-05-05 17:48 35.95424 51.78788 37070 ft 552 kts 57°
2026-05-05 17:48 35.99454 51.86765 37058 ft 547 kts 57°
2026-05-05 17:49 36.03478 51.94741 37065 ft 546 kts 57°
2026-05-05 17:49 36.07514 52.02760 37409 ft 549 kts 57°
2026-05-05 17:49 36.09527 52.06770 37801 ft 547 kts 57°
2026-05-05 17:50 36.11538 52.10781 38213 ft 544 kts 57°
2026-05-05 17:50 36.13533 52.14766 38594 ft 543 kts 57°
2026-05-05 17:50 36.15525 52.18751 38768 ft 544 kts 57°
2026-05-05 17:50 36.17504 52.22717 38934 ft 544 kts 57°
2026-05-05 17:51 36.19501 52.26711 39028 ft 545 kts 57°
2026-05-05 17:51 36.23492 52.34718 39010 ft 544 kts 58°
2026-05-05 17:52 36.27476 52.42736 38988 ft 547 kts 58°
2026-05-05 17:52 36.31464 52.50786 38980 ft 547 kts 58°
2026-05-05 17:53 36.35448 52.58839 38978 ft 547 kts 57°
2026-05-05 17:53 36.39404 52.66848 38980 ft 546 kts 58°
2026-05-05 17:54 36.43370 52.74909 38973 ft 546 kts 58°
2026-05-05 17:54 36.47329 52.82984 38974 ft 546 kts 57°
2026-05-05 17:55 36.51293 52.91078 38971 ft 546 kts 57°
2026-05-05 17:55 36.55224 52.99125 38968 ft 546 kts 58°
2026-05-05 17:56 36.59163 53.07219 38967 ft 546 kts 57°
2026-05-05 17:56 36.62369 53.14006 38970 ft 547 kts 61°
2026-05-05 17:57 36.65578 53.22620 38970 ft 548 kts 69°
2026-05-05 17:57 36.67942 53.31648 38973 ft 547 kts 75°
2026-05-05 17:58 36.70034 53.40770 38972 ft 546 kts 75°
2026-05-05 17:58 36.72149 53.49903 38971 ft 547 kts 75°
2026-05-05 17:59 36.74279 53.59016 38968 ft 547 kts 75°
2026-05-05 17:59 36.76403 53.68107 38969 ft 547 kts 75°
2026-05-05 18:00 36.78521 53.77231 38963 ft 546 kts 75°
2026-05-05 18:00 36.80627 53.86351 38963 ft 546 kts 74°
2026-05-05 18:01 36.82723 53.95471 38973 ft 546 kts 75°
2026-05-05 18:01 36.84874 54.04571 38973 ft 545 kts 73°
2026-05-05 18:02 36.87111 54.13646 38975 ft 545 kts 73°
2026-05-05 18:02 36.89317 54.22673 38987 ft 545 kts 73°
2026-05-05 18:03 36.91517 54.31771 39000 ft 544 kts 73°
2026-05-05 18:03 36.93579 54.40882 39016 ft 544 kts 76°
2026-05-05 18:04 36.95349 54.50080 39001 ft 544 kts 77°
2026-05-05 18:04 36.97088 54.59289 39007 ft 543 kts 77°
2026-05-05 18:05 36.98837 54.68498 39005 ft 543 kts 77°
2026-05-05 18:05 37.00582 54.77700 38999 ft 543 kts 77°
2026-05-05 18:06 37.02409 54.86847 38991 ft 543 kts 76°
2026-05-05 18:06 37.04295 54.96069 38992 ft 543 kts 76°
2026-05-05 18:07 37.06145 55.05224 38990 ft 541 kts 76°
2026-05-05 18:07 37.07988 55.14427 38993 ft 540 kts 76°
2026-05-05 18:08 37.09817 55.23586 38992 ft 540 kts 76°
2026-05-05 18:08 37.11641 55.32730 38997 ft 540 kts 76°
2026-05-05 18:09 37.13448 55.41822 38990 ft 539 kts 76°
2026-05-05 18:09 37.15254 55.50954 38990 ft 539 kts 76°
2026-05-05 18:10 37.17054 55.60111 38996 ft 540 kts 76°
2026-05-05 18:10 37.18849 55.69260 38989 ft 540 kts 76°
2026-05-05 18:11 37.20635 55.78414 38989 ft 539 kts 76°
2026-05-05 18:11 37.22412 55.87581 38985 ft 540 kts 76°
2026-05-05 18:12 37.24183 55.96728 38972 ft 540 kts 76°
2026-05-05 18:12 37.25961 56.05957 38967 ft 540 kts 76°
2026-05-05 18:13 37.27713 56.15093 38957 ft 540 kts 76°
2026-05-05 18:13 37.29466 56.24288 38960 ft 540 kts 76°
2026-05-05 18:14 37.31212 56.33489 38959 ft 540 kts 76°
2026-05-05 18:14 37.32950 56.42682 38953 ft 540 kts 76°
2026-05-05 18:15 37.34682 56.51879 38950 ft 540 kts 76°
2026-05-05 18:15 37.36410 56.61109 38934 ft 539 kts 76°
2026-05-05 18:16 37.38110 56.70232 38927 ft 538 kts 76°
2026-05-05 18:16 37.39814 56.79408 38920 ft 538 kts 76°
2026-05-05 18:17 37.41518 56.88624 38907 ft 538 kts 76°
2026-05-05 18:17 37.43228 56.97885 38908 ft 540 kts 76°
2026-05-05 18:18 37.44927 57.07111 38914 ft 541 kts 76°
2026-05-05 18:18 37.46602 57.16282 38921 ft 539 kts 76°
2026-05-05 18:19 37.48279 57.25505 39021 ft 539 kts 76°
2026-05-05 18:19 37.49965 57.34729 39014 ft 538 kts 75°
2026-05-05 18:20 37.51782 57.43883 39010 ft 538 kts 74°
2026-05-05 18:20 37.53620 57.53042 38973 ft 537 kts 74°
2026-05-05 18:21 37.55432 57.62195 38957 ft 537 kts 75°
2026-05-05 18:21 37.57230 57.71361 38931 ft 538 kts 75°
2026-05-05 18:22 37.59018 57.80520 38928 ft 537 kts 75°
2026-05-05 18:22 37.60801 57.89690 38927 ft 537 kts 75°
2026-05-05 18:23 37.62572 57.98847 38924 ft 537 kts 75°
2026-05-05 18:23 37.64330 58.07976 38928 ft 536 kts 75°
2026-05-05 18:24 37.66917 58.16773 38904 ft 527 kts 54°
2026-05-05 18:24 37.69042 58.20438 38903 ft 520 kts 43°
2026-05-05 18:24 37.71698 58.23550 38888 ft 509 kts 31°
2026-05-05 18:24 37.74624 58.25886 38869 ft 499 kts 20°
2026-05-05 18:25 37.77810 58.27522 38871 ft 490 kts 10°
2026-05-05 18:25 37.84406 58.29328 38843 ft 484 kts
2026-05-05 18:26 37.91020 58.31054 38814 ft 488 kts
2026-05-05 18:26 37.97379 58.34283 38825 ft 500 kts 23°
2026-05-05 18:27 38.03087 58.39389 38823 ft 512 kts 37°
2026-05-05 18:27 38.07852 58.46201 38826 ft 520 kts 49°
2026-05-05 18:28 38.14221 58.57361 38801 ft 518 kts 50°
2026-05-05 18:28 38.18481 58.64797 38782 ft 517 kts 50°
2026-05-05 18:29 38.22738 58.72185 38766 ft 517 kts 50°
2026-05-05 18:29 38.26935 58.79469 38761 ft 517 kts 50°
2026-05-05 18:30 38.31188 58.86865 38770 ft 517 kts 50°
2026-05-05 18:30 38.35408 58.94221 38769 ft 517 kts 50°
2026-05-05 18:31 38.39647 59.01627 38767 ft 517 kts 50°
2026-05-05 18:31 38.43881 59.09040 38788 ft 515 kts 50°
2026-05-05 18:32 38.48063 59.16384 38790 ft 515 kts 50°
2026-05-05 18:32 38.52270 59.23785 38777 ft 515 kts 50°
2026-05-05 18:33 38.56466 59.31186 38791 ft 516 kts 50°
2026-05-05 18:33 38.60770 59.38514 38794 ft 513 kts 47°
2026-05-05 18:34 38.65328 59.45521 38795 ft 512 kts 46°
2026-05-05 18:34 38.69923 59.52523 38798 ft 513 kts 46°
2026-05-05 18:35 38.74504 59.59540 38802 ft 513 kts 46°
2026-05-05 18:35 38.79070 59.66565 38809 ft 512 kts 46°
2026-05-05 18:36 38.83601 59.73552 38811 ft 512 kts 46°
2026-05-05 18:36 38.88149 59.80581 38813 ft 512 kts 46°
2026-05-05 18:37 38.92699 59.87629 38830 ft 511 kts 46°
2026-05-05 18:37 38.97225 59.94659 38826 ft 509 kts 46°
2026-05-05 18:38 39.01729 60.01667 38828 ft 508 kts 46°
2026-05-05 18:38 39.06229 60.08685 38833 ft 508 kts 46°
2026-05-05 18:39 39.10702 60.15675 38834 ft 508 kts 46°
2026-05-05 18:39 39.15193 60.22711 38839 ft 506 kts 46°
2026-05-05 18:40 39.19660 60.29724 38848 ft 505 kts 46°
2026-05-05 18:40 39.24122 60.36743 38847 ft 505 kts 46°
2026-05-05 18:41 39.28576 60.43768 38852 ft 505 kts 46°
2026-05-05 18:41 39.33026 60.50801 38859 ft 504 kts 46°
2026-05-05 18:42 39.37458 60.57820 38861 ft 503 kts 46°
2026-05-05 18:42 39.41128 60.63645 38864 ft 503 kts 47°
2026-05-05 18:43 39.45547 60.70673 38867 ft 503 kts 47°
2026-05-05 18:43 39.49965 60.77716 38876 ft 502 kts 47°
2026-05-05 18:44 39.54284 60.84616 38877 ft 502 kts 47°
2026-05-05 18:44 39.58690 60.91669 38878 ft 502 kts 47°
2026-05-05 18:45 39.63080 60.98713 38886 ft 502 kts 47°
2026-05-05 18:45 39.67468 61.05770 38886 ft 502 kts 47°
2026-05-05 18:46 39.71827 61.12795 38887 ft 501 kts 47°
2026-05-05 18:46 39.76203 61.19864 38887 ft 502 kts 47°
2026-05-05 18:47 39.80579 61.26951 38892 ft 501 kts 47°
2026-05-05 18:47 39.84949 61.34043 38895 ft 501 kts 47°
2026-05-05 18:48 39.89315 61.41143 38899 ft 501 kts 47°
2026-05-05 18:48 39.93665 61.48238 38898 ft 501 kts 47°
2026-05-05 18:49 39.98014 61.55347 38912 ft 501 kts 47°
2026-05-05 18:49 40.02356 61.62460 38908 ft 501 kts 47°
2026-05-05 18:50 40.06722 61.69628 38910 ft 501 kts 47°
2026-05-05 18:50 40.11034 61.76724 38911 ft 501 kts 47°
2026-05-05 18:51 40.15366 61.83870 38911 ft 501 kts 47°
2026-05-05 18:51 40.19701 61.91037 38910 ft 501 kts 47°
2026-05-05 18:52 40.24018 61.98190 38916 ft 500 kts 48°
2026-05-05 18:52 40.28315 62.05327 38916 ft 500 kts 48°
2026-05-05 18:53 40.32635 62.12489 38925 ft 499 kts 46°
2026-05-05 18:53 40.37304 62.19194 38920 ft 495 kts 40°
2026-05-05 18:54 40.42465 62.25127 38923 ft 491 kts 33°
2026-05-05 18:54 40.48030 62.30252 38928 ft 487 kts 28°
2026-05-05 18:55 40.53703 62.35021 38928 ft 487 kts 27°
2026-05-05 18:55 40.59439 62.39850 38938 ft 487 kts 28°
2026-05-05 18:56 40.65146 62.44684 38927 ft 487 kts 28°
2026-05-05 18:56 40.70851 62.49535 38928 ft 487 kts 28°
2026-05-05 18:57 40.76550 62.54394 38934 ft 487 kts 28°
2026-05-05 18:57 40.82226 62.59244 38930 ft 486 kts 28°
2026-05-05 18:58 40.87914 62.64114 38940 ft 488 kts 28°
2026-05-05 18:58 40.93612 62.69003 38935 ft 488 kts 28°
2026-05-05 18:59 40.99311 62.73903 38937 ft 488 kts 28°
2026-05-05 18:59 41.04989 62.78796 38937 ft 488 kts 28°
2026-05-05 19:00 41.10689 62.83719 38956 ft 488 kts 28°
2026-05-05 19:00 41.16387 62.88649 38944 ft 489 kts 28°
2026-05-05 19:01 41.22096 62.93598 38943 ft 489 kts 28°
2026-05-05 19:01 41.27761 62.98520 38941 ft 489 kts 28°
2026-05-05 19:02 41.33446 63.03471 38958 ft 489 kts 28°
2026-05-05 19:02 41.39144 63.08444 38942 ft 489 kts 28°
2026-05-05 19:03 41.44846 63.13428 38950 ft 489 kts 28°
2026-05-05 19:03 41.50551 63.18427 38946 ft 489 kts 28°
2026-05-05 19:04 41.56247 63.23406 38945 ft 489 kts 28°
2026-05-05 19:04 41.61962 63.28376 38952 ft 490 kts 28°
2026-05-05 19:05 41.67653 63.33335 38948 ft 490 kts 28°
2026-05-05 19:05 41.73368 63.38328 38950 ft 490 kts 28°
2026-05-05 19:06 41.78153 63.42518 38946 ft 490 kts 28°
2026-05-05 19:06 41.84655 63.48225 38965 ft 491 kts 28°
2026-05-05 19:07 41.90365 63.53248 38956 ft 491 kts 28°
2026-05-05 19:07 41.96084 63.58290 38957 ft 491 kts 28°
2026-05-05 19:08 42.01795 63.63337 38965 ft 491 kts 28°
2026-05-05 19:08 42.07530 63.68415 38964 ft 492 kts 28°
2026-05-05 19:09 42.13204 63.73450 38971 ft 492 kts 28°
2026-05-05 19:09 42.18923 63.78536 38974 ft 492 kts 28°
2026-05-05 19:10 42.24639 63.83631 38982 ft 492 kts 28°
2026-05-05 19:10 42.30347 63.88731 38979 ft 492 kts 28°
2026-05-05 19:11 42.36056 63.93842 38982 ft 492 kts 28°
2026-05-05 19:11 42.41770 63.98967 38997 ft 492 kts 28°
2026-05-05 19:12 42.47427 64.04053 38990 ft 492 kts 28°
2026-05-05 19:12 42.53139 64.09202 38987 ft 492 kts 28°
2026-05-05 19:13 42.58898 64.14204 38993 ft 489 kts 24°
2026-05-05 19:13 42.64917 64.18439 38983 ft 486 kts 20°
2026-05-05 19:14 42.71025 64.22385 38984 ft 486 kts 20°
2026-05-05 19:14 42.77139 64.26338 38989 ft 486 kts 20°
2026-05-05 19:15 42.83214 64.30289 38990 ft 487 kts 20°
2026-05-05 19:15 42.89313 64.34271 38981 ft 486 kts 20°
2026-05-05 19:16 42.95412 64.38266 38978 ft 486 kts 20°
2026-05-05 19:16 43.01506 64.42266 38986 ft 486 kts 20°
2026-05-05 19:17 43.07623 64.46289 38984 ft 487 kts 20°
2026-05-05 19:17 43.13736 64.50319 38989 ft 487 kts 20°
2026-05-05 19:18 43.19810 64.54334 38987 ft 487 kts 20°
2026-05-05 19:18 43.25910 64.58373 38987 ft 487 kts 20°
2026-05-05 19:19 43.32042 64.62443 38983 ft 488 kts 20°
2026-05-05 19:19 43.38150 64.66504 38984 ft 487 kts 20°
2026-05-05 19:20 43.44229 64.70557 38983 ft 485 kts 20°
2026-05-05 19:20 43.50136 64.74504 38993 ft 485 kts 20°
2026-05-05 19:21 43.55916 64.78373 38984 ft 486 kts 20°
2026-05-05 19:21 43.62002 64.82457 38986 ft 486 kts 21°
2026-05-05 19:22 43.68074 64.86539 38981 ft 485 kts 21°
2026-05-05 19:22 43.74142 64.90634 38983 ft 485 kts 21°
2026-05-05 19:23 43.80187 64.94727 38983 ft 486 kts 21°
2026-05-05 19:23 43.86262 64.98848 38993 ft 486 kts 21°
2026-05-05 19:24 43.92324 65.02965 38981 ft 485 kts 21°
2026-05-05 19:24 43.98386 65.07098 38990 ft 485 kts 21°
2026-05-05 19:25 44.04455 65.11243 38983 ft 486 kts 21°
2026-05-05 19:25 44.10523 65.15398 38982 ft 486 kts 21°
2026-05-05 19:26 44.16553 65.19536 38983 ft 486 kts 21°
2026-05-05 19:26 44.22616 65.23708 38990 ft 486 kts 21°
2026-05-05 19:27 44.28695 65.27900 38987 ft 487 kts 21°
2026-05-05 19:27 44.34764 65.32094 38985 ft 487 kts 21°
2026-05-05 19:28 44.40861 65.36318 38991 ft 486 kts 21°
2026-05-05 19:28 44.46882 65.40497 38986 ft 486 kts 21°
2026-05-05 19:29 44.52946 65.44716 38986 ft 486 kts 21°
2026-05-05 19:29 44.59012 65.48945 38987 ft 486 kts 21°
2026-05-05 19:30 44.65063 65.53177 38989 ft 485 kts 21°
2026-05-05 19:30 44.71070 65.57395 38995 ft 485 kts 22°
2026-05-05 19:31 44.76114 65.61014 38990 ft 486 kts 22°
2026-05-05 19:31 44.82143 65.65365 38985 ft 486 kts 22°
2026-05-05 19:32 44.88188 65.69731 38990 ft 486 kts 22°
2026-05-05 19:32 44.94203 65.74080 38986 ft 485 kts 22°
2026-05-05 19:33 45.00209 65.78432 38988 ft 486 kts 22°
2026-05-05 19:33 45.06211 65.82794 38986 ft 486 kts 22°
2026-05-05 19:34 45.12226 65.87174 38985 ft 486 kts 22°
2026-05-05 19:35 45.21248 65.93762 38998 ft 486 kts 23°
2026-05-05 19:35 45.27269 65.98171 38972 ft 487 kts 23°
2026-05-05 19:36 45.33281 66.02588 38989 ft 487 kts 23°
2026-05-05 19:36 45.39345 66.06911 38994 ft 486 kts 21°
2026-05-05 19:37 45.45399 66.11020 38986 ft 485 kts 21°
2026-05-05 19:37 45.51496 66.15178 38991 ft 486 kts 21°
2026-05-05 19:38 45.57593 66.19367 38984 ft 486 kts 22°
2026-05-05 19:38 45.63679 66.23564 38989 ft 486 kts 22°
2026-05-05 19:39 45.69732 66.27746 38987 ft 486 kts 22°
2026-05-05 19:39 45.75791 66.31945 38983 ft 486 kts 22°
2026-05-05 19:40 45.81887 66.36183 38982 ft 486 kts 22°
2026-05-05 19:40 45.87975 66.40424 38991 ft 486 kts 22°
2026-05-05 19:41 45.94071 66.44680 38988 ft 486 kts 22°
2026-05-05 19:41 46.00110 66.48904 38985 ft 486 kts 22°
2026-05-05 19:42 46.06192 66.53173 38993 ft 486 kts 22°
2026-05-05 19:42 46.12281 66.57457 38992 ft 486 kts 22°
2026-05-05 19:43 46.18373 66.61753 38991 ft 486 kts 22°
2026-05-05 19:43 46.24456 66.66051 38999 ft 486 kts 22°
2026-05-05 19:44 46.30535 66.70358 39000 ft 486 kts 22°
2026-05-05 19:44 46.36615 66.74677 38998 ft 486 kts 22°
2026-05-05 19:45 46.42690 66.79005 39001 ft 486 kts 22°
2026-05-05 19:45 46.48720 66.83332 39009 ft 487 kts 22°
2026-05-05 19:46 46.54795 66.87704 39004 ft 487 kts 23°
2026-05-05 19:46 46.60879 66.92092 39003 ft 487 kts 23°
2026-05-05 19:47 46.66962 66.96489 39004 ft 487 kts 23°
2026-05-05 19:47 46.73032 67.00887 39016 ft 487 kts 23°
2026-05-05 19:48 46.79072 67.05273 39012 ft 488 kts 23°
2026-05-05 19:48 46.85153 67.09701 39009 ft 488 kts 23°
2026-05-05 19:49 46.91212 67.14285 39011 ft 489 kts 25°
2026-05-05 19:49 46.97183 67.19078 39011 ft 489 kts 25°
2026-05-05 19:50 47.03143 67.23879 39011 ft 489 kts 25°
2026-05-05 19:50 47.09120 67.28663 39016 ft 489 kts 24°
2026-05-05 19:51 47.15185 67.33198 39018 ft 488 kts 23°
2026-05-05 19:51 47.21254 67.37689 39017 ft 488 kts 23°
2026-05-05 19:52 47.27283 67.42189 39011 ft 489 kts 23°
2026-05-05 19:52 47.33339 67.46734 39015 ft 489 kts 24°
2026-05-05 19:53 47.39417 67.51305 39014 ft 490 kts 24°
2026-05-05 19:53 47.45484 67.55885 39014 ft 490 kts 24°
2026-05-05 19:54 47.51564 67.60485 39019 ft 490 kts 24°
2026-05-05 19:54 47.57654 67.65109 39024 ft 491 kts 23°
2026-05-05 19:55 47.63746 67.69797 39021 ft 493 kts 26°
2026-05-05 19:55 47.69415 67.75642 39021 ft 499 kts 37°
2026-05-05 19:56 47.74282 67.82973 39021 ft 504 kts 49°
2026-05-05 19:56 47.78227 67.91624 39025 ft 506 kts 58°
2026-05-05 19:57 47.80710 67.98104 39024 ft 506 kts 59°
2026-05-05 19:57 47.83827 68.06340 39032 ft 506 kts 59°
2026-05-05 19:58 47.87311 68.15480 39027 ft 507 kts 58°
2026-05-05 19:58 47.90803 68.24618 39024 ft 507 kts 58°
2026-05-05 19:59 47.94297 68.33779 39029 ft 507 kts 58°
2026-05-05 19:59 47.97763 68.42896 39027 ft 508 kts 59°
2026-05-05 20:00 48.01243 68.52082 39026 ft 508 kts 59°
2026-05-05 20:00 48.04725 68.61304 39030 ft 508 kts 59°
2026-05-05 20:01 48.08196 68.70530 39033 ft 508 kts 59°
2026-05-05 20:01 48.11672 68.79748 39033 ft 507 kts 59°
2026-05-05 20:02 48.15135 68.88951 39031 ft 507 kts 59°
2026-05-05 20:02 48.18598 68.98189 39036 ft 507 kts 59°
2026-05-05 20:03 48.22024 69.07362 39033 ft 506 kts 59°
2026-05-05 20:03 48.25461 69.16597 39033 ft 506 kts 59°
2026-05-05 20:04 48.28893 69.25852 39033 ft 506 kts 59°
2026-05-05 20:04 48.32316 69.35114 39041 ft 507 kts 59°
2026-05-05 20:05 48.35721 69.44362 39035 ft 507 kts 59°
2026-05-05 20:05 48.39127 69.53663 39037 ft 507 kts 59°
2026-05-05 20:06 48.42525 69.62975 39039 ft 507 kts 59°
2026-05-05 20:06 48.45923 69.72314 39039 ft 507 kts 60°
2026-05-05 20:07 48.49308 69.81648 39039 ft 506 kts 60°
2026-05-05 20:07 48.52680 69.90985 39042 ft 506 kts 60°
2026-05-05 20:08 48.56026 70.00281 39042 ft 506 kts 60°
2026-05-05 20:08 48.59384 70.09643 39041 ft 506 kts 60°
2026-05-05 20:09 48.62736 70.19019 39045 ft 505 kts 60°
2026-05-05 20:09 48.66072 70.28388 39045 ft 505 kts 60°
2026-05-05 20:10 48.69405 70.37780 39042 ft 505 kts 60°
2026-05-05 20:10 48.71065 70.42469 38834 ft 505 kts 60°
2026-05-05 20:10 48.72720 70.47157 38585 ft 503 kts 60°
2026-05-05 20:10 48.74365 70.51835 38278 ft 499 kts 61°
2026-05-05 20:11 48.75960 70.56408 37906 ft 496 kts 61°
2026-05-05 20:11 48.77574 70.61051 37434 ft 494 kts 61°
2026-05-05 20:11 48.79176 70.65666 37167 ft 494 kts 61°
2026-05-05 20:11 48.80778 70.70289 36892 ft 495 kts 62°
2026-05-05 20:12 48.82380 70.74916 36617 ft 495 kts 62°
2026-05-05 20:12 48.83983 70.79552 36296 ft 495 kts 62°
2026-05-05 20:12 48.85585 70.84194 35827 ft 496 kts 62°
2026-05-05 20:12 48.87188 70.88844 35257 ft 496 kts 62°
2026-05-05 20:13 48.88793 70.93511 34677 ft 497 kts 62°
2026-05-05 20:13 48.90395 70.98178 34053 ft 498 kts 62°
2026-05-05 20:13 48.91974 71.02786 33359 ft 499 kts 62°
2026-05-05 20:13 48.93577 71.07472 32686 ft 499 kts 63°
2026-05-05 20:14 48.95181 71.12173 32024 ft 499 kts 63°
2026-05-05 20:14 48.96782 71.16870 31355 ft 500 kts 63°
2026-05-05 20:14 48.98383 71.21577 30678 ft 501 kts 63°
2026-05-05 20:14 48.99989 71.26310 29964 ft 502 kts 63°
2026-05-05 20:15 49.01592 71.31041 29181 ft 503 kts 63°
2026-05-05 20:15 49.03195 71.35783 28440 ft 503 kts 63°
2026-05-05 20:15 49.04798 71.40533 27776 ft 501 kts 63°
2026-05-05 20:15 49.06388 71.45250 27334 ft 498 kts 63°
2026-05-05 20:16 49.07966 71.49943 26867 ft 495 kts 63°
2026-05-05 20:16 49.09532 71.54606 26336 ft 491 kts 63°
2026-05-05 20:16 49.11083 71.59234 25831 ft 487 kts 63°
2026-05-05 20:16 49.12620 71.63829 25376 ft 482 kts 63°
2026-05-05 20:17 49.14117 71.68311 24922 ft 477 kts 63°
2026-05-05 20:17 49.15619 71.72814 24474 ft 473 kts 63°
2026-05-05 20:17 49.17102 71.77271 24028 ft 469 kts 63°
2026-05-05 20:17 49.18578 71.81714 23577 ft 465 kts 63°
2026-05-05 20:18 49.20038 71.86117 23074 ft 461 kts 63°
2026-05-05 20:18 49.21483 71.90480 22592 ft 457 kts 63°
2026-05-05 20:18 49.22914 71.94816 22146 ft 453 kts 63°
2026-05-05 20:18 49.24332 71.99106 21668 ft 449 kts 63°
2026-05-05 20:19 49.25736 72.03358 21216 ft 446 kts 63°
2026-05-05 20:19 49.27128 72.07591 20768 ft 443 kts 63°
2026-05-05 20:19 49.28044 72.10380 20459 ft 440 kts 63°
2026-05-05 20:19 49.29875 72.15966 19858 ft 436 kts 63°
2026-05-05 20:20 49.30776 72.18717 19572 ft 434 kts 63°
2026-05-05 20:20 49.32123 72.22842 19143 ft 431 kts 63°
2026-05-05 20:20 49.33457 72.26932 18707 ft 428 kts 63°
2026-05-05 20:20 49.34786 72.31012 18263 ft 425 kts 63°
2026-05-05 20:21 49.36103 72.35054 17813 ft 421 kts 63°
2026-05-05 20:21 49.37831 72.40358 17233 ft 416 kts 63°
2026-05-05 20:21 49.38703 72.43043 16940 ft 414 kts 63°
2026-05-05 20:21 49.39982 72.46990 16515 ft 411 kts 63°
2026-05-05 20:22 49.41250 72.50911 16087 ft 408 kts 64°
2026-05-05 20:22 49.42508 72.54804 15671 ft 405 kts 64°
2026-05-05 20:22 49.43757 72.58677 15254 ft 403 kts 64°
2026-05-05 20:22 49.44998 72.62528 14838 ft 400 kts 64°
2026-05-05 20:23 49.46214 72.66308 14410 ft 398 kts 64°
2026-05-05 20:23 49.47441 72.70130 13996 ft 396 kts 64°
2026-05-05 20:23 49.48658 72.73924 13547 ft 394 kts 64°
2026-05-05 20:23 49.49865 72.77696 13099 ft 391 kts 64°
2026-05-05 20:24 49.51065 72.81448 12647 ft 388 kts 64°
2026-05-05 20:24 49.52240 72.85130 12470 ft 376 kts 64°
2026-05-05 20:24 49.53375 72.88689 12367 ft 362 kts 64°
2026-05-05 20:24 49.54467 72.92118 12246 ft 350 kts 64°
2026-05-05 20:25 49.55519 72.95428 12128 ft 338 kts 64°
2026-05-05 20:25 49.56535 72.98626 12021 ft 326 kts 64°
2026-05-05 20:25 49.57511 73.01705 11918 ft 314 kts 65°
2026-05-05 20:25 49.58455 73.04685 11832 ft 304 kts 65°
2026-05-05 20:26 49.59372 73.07585 11755 ft 298 kts 65°
2026-05-05 20:26 49.60261 73.10400 11578 ft 294 kts 65°
2026-05-05 20:26 49.61168 73.13276 10989 ft 303 kts 65°
2026-05-05 20:26 49.62102 73.16239 10522 ft 307 kts 65°
2026-05-05 20:27 49.63037 73.19210 10369 ft 307 kts 65°
2026-05-05 20:27 49.63965 73.22161 9923 ft 304 kts 65°
2026-05-05 20:27 49.64885 73.25090 9275 ft 302 kts 65°
2026-05-05 20:27 49.65797 73.27999 8656 ft 299 kts 65°
2026-05-05 20:28 49.66701 73.30886 8054 ft 297 kts 65°
2026-05-05 20:28 49.67598 73.33757 7447 ft 295 kts 65°
2026-05-05 20:28 49.68419 73.36610 7094 ft 285 kts 72°
2026-05-05 20:28 49.68895 73.39591 6948 ft 290 kts 83°
2026-05-05 20:29 49.69131 73.42720 6985 ft 294 kts 86°
2026-05-05 20:29 49.69317 73.45882 6993 ft 295 kts 86°
2026-05-05 20:29 49.69500 73.49031 6995 ft 295 kts 86°
2026-05-05 20:29 49.69688 73.52195 6996 ft 295 kts 86°
2026-05-05 20:30 49.69882 73.55347 6996 ft 293 kts 86°
2026-05-05 20:30 49.70076 73.58449 6995 ft 293 kts 86°
2026-05-05 20:30 49.70272 73.61582 6995 ft 292 kts 86°
2026-05-05 20:30 49.70468 73.64722 6995 ft 292 kts 86°
2026-05-05 20:31 49.70663 73.67852 6998 ft 292 kts 86°
2026-05-05 20:31 49.70999 73.70942 6921 ft 293 kts 69°
2026-05-05 20:31 49.72120 73.73533 6702 ft 290 kts 39°
2026-05-05 20:31 49.73855 73.75016 6417 ft 285 kts 11°
2026-05-05 20:32 49.75796 73.75166 6165 ft 277 kts 346°
2026-05-05 20:32 49.77554 73.74078 5859 ft 269 kts 324°
2026-05-05 20:32 49.78912 73.72156 5459 ft 263 kts 298°
2026-05-05 20:32 49.79531 73.69586 5157 ft 258 kts 273°
2026-05-05 20:33 49.79528 73.66820 4928 ft 255 kts 262°
2026-05-05 20:33 49.79145 73.64163 4634 ft 252 kts 248°
2026-05-05 20:33 49.78381 73.61724 4394 ft 251 kts 241°
2026-05-05 20:33 49.77542 73.59456 4304 ft 230 kts 239°
2026-05-05 20:34 49.76760 73.57473 4351 ft 203 kts 238°
2026-05-05 20:34 49.76057 73.55725 4380 ft 179 kts 238°
2026-05-05 20:34 49.75431 73.54173 4308 ft 165 kts 238°
2026-05-05 20:34 49.74832 73.52681 4241 ft 162 kts 238°
2026-05-05 20:35 49.74237 73.51199 4068 ft 161 kts 238°
2026-05-05 20:35 49.73648 73.49729 3848 ft 160 kts 238°
2026-05-05 20:35 49.73061 73.48263 3634 ft 160 kts 238°
2026-05-05 20:35 49.72476 73.46801 3438 ft 159 kts 238°
2026-05-05 20:36 49.71894 73.45343 3226 ft 159 kts 238°
2026-05-05 20:36 49.71322 73.43911 3024 ft 158 kts 238°
2026-05-05 20:36 49.70742 73.42458 2814 ft 158 kts 237°
2026-05-05 20:36 49.70169 73.41019 2597 ft 157 kts 237°
2026-05-05 20:37 49.69593 73.39580 2384 ft 156 kts 237°
2026-05-05 20:37 49.69027 73.38157 2153 ft 154 kts 238°
2026-05-05 20:37 49.68470 73.36738 1978 ft 153 kts 238°
2026-05-05 20:37 49.67912 73.35364 1803 ft 152 kts 239°
2026-05-05 20:38 49.67442 73.34174 1783 ft 89 kts 238°
2026-05-05 20:38 49.67283 73.33724 1784 ft 22 kts 287°
2026-05-05 20:38 49.67409 73.33578 1784 ft 24 kts 329°
2026-05-05 20:38 49.67504 73.33484 1784 ft 8 kts 309°
2026-05-05 20:39 49.67496 73.33408 1784 ft 9 kts 236°
2026-05-05 20:39 49.67456 73.33313 1784 ft 12 kts 237°
2026-05-05 20:39 49.67427 73.33236 1783 ft 9 kts 233°
2026-05-05 20:39 49.67403 73.33134 1783 ft 11 kts 268°
2026-05-05 20:40 49.67406 73.33097 1783 ft 2 kts 282°
2026-05-05 20:40 49.67407 73.33087 1783 ft 0 kts 282°